Regional Weather Roundup
Issued by NWS

Home | Current Version | Previous Version | Text Only | Print | Product List | Glossary Off
Versions: 1 2 3 4 5 6 7 8 9 10 11 12 13 14 15 16 17 18 19 20 21 22 23 24 25 26 27 28 29 30 31 32 33 34 35 36 37 38 39 40 41 42 43 44 45 46 47 48 49 50

000
ASUS44 KMEG 221200
RWRTN
TENNESSEE HOURLY STATE WEATHER ROUNDUP
NATIONAL WEATHER SERVICE MEMPHIS TN
700 AM CDT MON SEP 22 2014

TNZ002-004-019-021-049-052-054-088>092-221300-
WEST TENNESSEE

CITY           SKY/WX    TMP DP  RH WIND       PRES   REMARKS
MEMPHIS INTL   CLEAR     61  51  70 N8        30.19R
NWS MEMPHIS      N/A     59 N/A N/A MISG        N/A
JACKSON        CLEAR     53  49  86 CALM      30.18R
DYERSBURG      CLEAR     55  43  62 N6        30.21R
PARIS          CLEAR     48  46  93 N3        30.19R
SAVANNAH       CLEAR     52  52 100 CALM      30.17R
$$

TNZ008-025-027-028-033-062-065-066-221300-
NORTH MIDDLE TENNESSEE

CITY           SKY/WX    TMP DP  RH WIND       PRES   REMARKS
NASHVILLE      CLEAR     56  50  80 N5        30.17R
CLARKSVILLE    CLEAR     51  48  89 N6        30.18R
COOKEVILLE     CLEAR     48  48 100 N3        30.15R
CROSSVILLE     CLEAR     51  45  79 NE3       30.15R
$$

TNZ061-075-076-078-094-096-097-221300-
SOUTH MIDDLE TENNESSEE

CITY           SKY/WX    TMP DP  RH WIND       PRES   REMARKS
WINCHESTER     CLEAR     52  50  93 CALM      30.14R
SHELBYVILLE    CLEAR     54  52  94 N6        30.16R
$$

TNZ017-018-042-046-047-221300-
NORTHEAST TENNESSEE

CITY           SKY/WX    TMP DP  RH WIND       PRES   REMARKS
TRI CITIES     PTCLDY    54  48  80 N5        30.12R
ELIZABETHTON   FOG       46  46 100 CALM      30.12R VSB 1/2
$$

TNZ012-013-036-069-073-074-221300-
CENTRAL EAST TENNESSEE

CITY           SKY/WX    TMP DP  RH WIND       PRES   REMARKS
KNOXVILLE      PTCLDY    57  51  80 CALM      30.11R
OAK RIDGE      CLEAR     56  50  80 CALM      30.14R
$$

TNZ083-085-099-221300-
SOUTHEAST TENNESSEE

CITY           SKY/WX    TMP DP  RH WIND       PRES   REMARKS
CHATTANOOGA    PTCLDY    61  50  67 NE7       30.10R
$$

SKY/WX REPORTED AS FAIR MEANS FEW OR NO CLOUDS BELOW
12 THOUSAND FEET.



USA.gov is the U.S. government's official web portal to all federal, state and local government web resources and services.